Regional Weather Roundup
Issued by NWS Charleston, SC

Current Version | Previous Version | Text Only | Print | Product List | Glossary Off
Versions: 1 2 3 4 5 6 7 8 9 10 11 12 13 14 15 16 17 18 19 20 21 22 23 24 25 26 27 28 29 30 31 32 33 34 35 36 37 38 39 40 41 42 43 44 45 46 47 48 49 50

000
ASUS42 KCHS 262026
RWRCHS

REGIONAL WEATHER ROUNDUP
NATIONAL WEATHER SERVICE CHARLESTON SC
300 PM EST SUN FEB 26 2017

NOTE: "FAIR" INDICATES FEW OR NO CLOUDS BELOW 12,000 FEET WITH NO
SIGNIFICANT WEATHER AND/OR OBSTRUCTIONS TO VISIBILITY.

NOT ALL STATIONS ARE QUALITY CONTROLLED. USE DATA WITH CAUTION...
ESPECIALLY DEWPOINT OBSERVATIONS.

SCZ027-030-031-034>040-042>050-262100-
...SOUTHEAST SOUTH CAROLINA...

CITY           SKY/WX    TMP DP  RH WIND       PRES   REMARKS
N CHARLESTON   SUNNY     66  18  15 VRB5      30.18F
WATERFRONT PRK   N/A     58  36  43 S7        30.19S
MOUNT PLEASANT FAIR      61  34  36 S9        30.19S
JOHNS ISLAND   FAIR      59  34  38 SE7G14    30.19F
PINOPOLIS        N/A     57  27  30 VRB2      30.11F
MONCKS CORNER  FAIR      61  21  21 N7        30.19S
SUMMERVILLE    FAIR      64  19  17 W7        30.19S
BEAUFORT MCAS  SUNNY     67  24  19 VRB3      30.19F
BEAUFORT ARPT  FAIR      64  28  25 N7        30.19S
HILTON HEAD IS SUNNY     59  34  38 SE7       30.21F
WALTERBORO     CLEAR     63  19  19 CALM      30.19S
ALLENDALE      FAIR      66  16  14 CALM      30.17S

...SOUTHERN MIDLANDS AND PEE DEE...

CITY           SKY/WX    TMP DP  RH WIND       PRES   REMARKS
GEORGETOWN     FAIR      61  32  33 SE9       30.20S
KINGSTREE      FAIR      61  19  20 NW8G16    30.19S
ORANGEBURG     SUNNY     63  17  17 W5        30.18F
BARNWELL       FAIR      68  19  15 SW8       30.17F
AIKEN          FAIR      63  18  17 NW5       30.20F
MANNING        FAIR     N/A N/A N/A MISG      30.19S
COLUMBIA       SUNNY     62  18  18 NW3       30.18F
SUMTER         SUNNY     62  17  17 NW8       30.16F
FLORENCE       SUNNY     59  20  22 VRB3      30.19F
MYRTLE BEACH   SUNNY     57  28  33 S13       30.19F
N MYRTLE BEACH SUNNY     57  30  35 S13       30.18S

$$

GAZ063-065-086>088-099>101-113>116-118-119-134>141-150-262100-
...SOUTHEAST GEORGIA...

CITY           SKY/WX    TMP DP  RH WIND       PRES   REMARKS
SAVANNAH ARPT  SUNNY     68  18  14 NW8       30.19F
HUNTER AAF     SUNNY     67  29  24 NW8       30.17F
FORT STEWART   SUNNY     66  21  18 NW7       30.17F
STATESBORO     SUNNY     66  27  22 NW6       30.19F
SYLVANIA       CLEAR    N/A N/A N/A CALM      30.19S
CLAXTON        FAIR      67  27  22 CALM      30.19F

...CSRA...CENTRAL AND FAR SOUTHEAST GEORGIA...

CITY           SKY/WX    TMP DP  RH WIND       PRES   REMARKS
THOMSON        SUNNY     66  25  21 W8        30.21F
AUGUSTA-BUSH   SUNNY     67  16  14 VRB5      30.17F
AUGUSTA-DANIEL SUNNY     65  15  14 VRB7      30.18F
SWAINSBORO     FAIR      64  18  16 CALM      30.19S
VIDALIA        SUNNY     68  32  26 N5        30.19S
EASTMAN        FAIR     N/A N/A N/A SW3       30.21S
HAZLEHURST     FAIR      68  26  20 N5        30.18S
ALMA           SUNNY     67  21  17 CALM      30.19F
WAYCROSS       SUNNY     70  26  18 N5        30.19F
JESUP          FAIR      68  14  12 NE5       30.19F
BAXLEY         FAIR      66  32  28 NW5       30.19S
BRUNSWICK      SUNNY     70  30  23 CALM      30.20S
SAINT SIMONS   SUNNY     63  36  36 E10       30.20S

$$

SCZ027-028-034-036>038-045-046-048>050-GAZ119-141-262100-
...LAKE AND SUPPLEMENTAL COASTAL OBSERVATIONS...

STATION/POSITION TIME  TEMP    WIND        PRES    WAVE   SWELL
                       AIR SEA DIR/SP/G            HT/PER HT/PER/DIR
                 (UTC) (F)     (DEG/KT/KT) (MB)    (FT/S) (FT/S/D)
WINYAH BAY       1930   56     140/  7     1022.0S
LAKE MURRAY      1930   55     130/  4/  7 1022.0S
ACE BASIN NERRS  1945   62     170/  3     1022.0S
FORT PULASKI     2000   61 63  180/  4/  8 1022.6
SAPELO ISLAND    2000   65     100/  8     1022.0

$$

ANZ835-935-AMZ111-154-330-350-352-354-370-450-454-472-262100-
...C-MAN AND BUOY OBSERVATIONS...

STATION/POSITION TIME  TEMP    WIND        PRES    WAVE   SWELL
                       AIR SEA DIR/SP/G            HT/PER HT/PER/DIR
                 (UTC) (F)     (DEG/KT/KT) (MB)    (FT/S) (FT/S/D)
BUOY 41004       1950   57 69  330/  4/  6 1022.7R   3/10   3/120/10
BUOY 41008       1950   56 62   30/  6/  8 1023.1S   2/ 9   2/ 80/ 9
FOLLY BEACH CMAN 2000   57     170/  7/  9 1023.1F
CAPERS NEARSHORE 2008   56 62  180/  8/ 10 1022.4F
FRIPP NEARSHORE  2008   56 63  180/ 10/ 12 1022.5F


STATION/POSITION TIME  TEMP    WIND        PRES    WAVE   SWELL
                       AIR SEA DIR/SP/G            HT/PER HT/PER/DIR
                 (UTC) (F)     (DEG/KT/KT) (MB)    (FT/S) (FT/S/D)
5E ST. MARYS GA  2000      65                N/A     2/ 9
FRYING PAN BUOY  2010   55 69  280/  6/ 10 1022.8
BUOY 41025       1950   52 72  330/  6/ 10 1021.4R   5/ 9   5/150/ 9
CAPE LOOKOUT NC  2000   54     240/  6/  8 1021.1R
BUOY 41002       1950   68 71  340/ 14/ 16 1019.9R   7/ 7   7/300/ 7
BUOY 41010       NOT AVBL
ST AUGUSTINE FL  2000   59 67   20/ 12/ 14 1023.6F


$$




USA.gov is the U.S. government's official web portal to all federal, state and local government web resources and services.